Year,Month,Day,Hour,Minute,Value (Times are PST for temperature in C)
2010,08,04,00,00,15.40
2010,08,04,00,01,15.40
2010,08,04,00,02,15.40
2010,08,04,00,03,15.40
2010,08,04,00,04,15.40
2010,08,04,00,05,15.30
2010,08,04,00,06,15.30
2010,08,04,00,07,15.30
2010,08,04,00,08,15.30
2010,08,04,00,09,15.30
2010,08,04,00,10,15.30
2010,08,04,00,11,15.30
2010,08,04,00,12,15.30
2010,08,04,00,13,15.30
2010,08,04,00,14,15.30
2010,08,04,00,15,15.30
2010,08,04,00,16,15.30
2010,08,04,00,17,15.30
2010,08,04,00,18,15.30
2010,08,04,00,19,15.30
2010,08,04,00,20,15.30
2010,08,04,00,21,15.30
2010,08,04,00,22,15.30
2010,08,04,00,23,15.30
2010,08,04,00,24,15.30
2010,08,04,00,25,15.30
2010,08,04,00,26,15.30
2010,08,04,00,27,15.30
2010,08,04,00,28,15.30
2010,08,04,00,29,15.30
2010,08,04,00,30,15.30
2010,08,04,00,31,15.30
2010,08,04,00,32,15.30
2010,08,04,00,33,15.20
2010,08,04,00,34,15.20
2010,08,04,00,35,15.20
2010,08,04,00,36,15.20
2010,08,04,00,37,15.20
2010,08,04,00,38,15.20
2010,08,04,00,39,15.20
2010,08,04,00,40,15.20
2010,08,04,00,41,15.20
2010,08,04,00,42,15.10
2010,08,04,00,43,15.20
2010,08,04,00,44,15.20
2010,08,04,00,45,15.20
2010,08,04,00,46,15.20
2010,08,04,00,47,15.20
2010,08,04,00,48,15.20
2010,08,04,00,49,15.20
2010,08,04,00,50,15.10
2010,08,04,00,51,15.10
2010,08,04,00,52,15.10
2010,08,04,00,53,15.00
2010,08,04,00,54,15.00
2010,08,04,00,55,15.00
2010,08,04,00,56,15.00
2010,08,04,00,57,15.00
2010,08,04,00,58,15.10
2010,08,04,00,59,15.10
2010,08,04,01,00,15.10
2010,08,04,01,01,15.10
2010,08,04,01,02,15.10
2010,08,04,01,03,15.10
2010,08,04,01,04,15.10
2010,08,04,01,05,15.10
2010,08,04,01,06,15.10
2010,08,04,01,07,15.10
2010,08,04,01,08,15.20
2010,08,04,01,09,15.20
2010,08,04,01,10,15.20
2010,08,04,01,11,15.20
2010,08,04,01,12,15.20
2010,08,04,01,13,15.20
2010,08,04,01,14,15.20
2010,08,04,01,15,15.20
2010,08,04,01,16,15.20
2010,08,04,01,17,15.20
2010,08,04,01,18,15.20
2010,08,04,01,19,15.10
2010,08,04,01,20,15.10
2010,08,04,01,21,15.10
2010,08,04,01,22,15.10
2010,08,04,01,23,15.00
2010,08,04,01,24,15.00
2010,08,04,01,25,15.00
2010,08,04,01,26,15.00
2010,08,04,01,27,15.00
2010,08,04,01,28,15.00
2010,08,04,01,29,15.00
2010,08,04,01,30,15.00
2010,08,04,01,31,15.00
2010,08,04,01,32,15.00
2010,08,04,01,33,15.00
2010,08,04,01,34,15.00
2010,08,04,01,35,15.00
2010,08,04,01,36,15.00
2010,08,04,01,37,15.00
2010,08,04,01,38,15.00
2010,08,04,01,39,15.00
2010,08,04,01,40,15.00
2010,08,04,01,41,15.00
2010,08,04,01,42,15.00
2010,08,04,01,43,15.00
2010,08,04,01,44,15.00
2010,08,04,01,45,15.00
2010,08,04,01,46,15.00
2010,08,04,01,47,15.00
2010,08,04,01,48,15.00
2010,08,04,01,49,15.00
2010,08,04,01,50,15.00
2010,08,04,01,51,15.00
2010,08,04,01,52,15.00
2010,08,04,01,53,15.00
2010,08,04,01,54,14.90
2010,08,04,01,55,14.90
2010,08,04,01,56,14.90
2010,08,04,01,57,14.90
2010,08,04,01,58,14.90
2010,08,04,01,59,15.00
2010,08,04,02,00,15.00
2010,08,04,02,01,15.00
2010,08,04,02,02,15.00
2010,08,04,02,03,14.90
2010,08,04,02,04,14.90
2010,08,04,02,05,14.90
2010,08,04,02,06,14.90
2010,08,04,02,07,14.90
2010,08,04,02,08,14.90
2010,08,04,02,09,14.90
2010,08,04,02,10,14.90
2010,08,04,02,11,14.90
2010,08,04,02,12,14.90
2010,08,04,02,13,14.90
2010,08,04,02,14,14.90
2010,08,04,02,15,14.90
2010,08,04,02,16,14.90
2010,08,04,02,17,14.80
2010,08,04,02,18,14.80
2010,08,04,02,19,14.80
2010,08,04,02,20,14.80
2010,08,04,02,21,14.80
2010,08,04,02,22,14.80
2010,08,04,02,23,14.70
2010,08,04,02,24,14.70
2010,08,04,02,25,14.70
2010,08,04,02,26,14.70
2010,08,04,02,27,14.70
2010,08,04,02,28,14.70
2010,08,04,02,29,14.70
2010,08,04,02,30,14.70
2010,08,04,02,31,14.70
2010,08,04,02,32,14.70
2010,08,04,02,33,14.70
2010,08,04,02,34,14.80
2010,08,04,02,35,14.80
2010,08,04,02,36,14.80
2010,08,04,02,37,14.80
2010,08,04,02,38,14.80
2010,08,04,02,39,14.80
2010,08,04,02,40,14.80
2010,08,04,02,41,14.70
2010,08,04,02,42,14.70
2010,08,04,02,43,14.70
2010,08,04,02,44,14.70
2010,08,04,02,45,14.70
2010,08,04,02,46,14.70
2010,08,04,02,47,14.70
2010,08,04,02,48,14.70
2010,08,04,02,49,14.70
2010,08,04,02,50,14.70
2010,08,04,02,51,14.70
2010,08,04,02,52,14.70
2010,08,04,02,53,14.70
2010,08,04,02,54,14.70
2010,08,04,02,55,14.70
2010,08,04,02,56,14.70
2010,08,04,02,57,14.70
2010,08,04,02,58,14.70
2010,08,04,02,59,14.70
2010,08,04,03,00,14.70
2010,08,04,03,01,14.60
2010,08,04,03,02,14.60
2010,08,04,03,03,14.60
2010,08,04,03,04,14.60
2010,08,04,03,05,14.60
2010,08,04,03,06,14.60
2010,08,04,03,07,14.60
2010,08,04,03,08,14.60
2010,08,04,03,09,14.60
2010,08,04,03,10,14.60
2010,08,04,03,11,14.60
2010,08,04,03,12,14.60
2010,08,04,03,13,14.60
2010,08,04,03,14,14.60
2010,08,04,03,15,14.50
2010,08,04,03,16,14.50
2010,08,04,03,17,14.50
2010,08,04,03,18,14.50
2010,08,04,03,19,14.40
2010,08,04,03,20,14.40
2010,08,04,03,21,14.40
2010,08,04,03,22,14.40
2010,08,04,03,23,14.30
2010,08,04,03,24,14.30
2010,08,04,03,25,14.30
2010,08,04,03,26,14.30
2010,08,04,03,27,14.30
2010,08,04,03,28,14.30
2010,08,04,03,29,14.30
2010,08,04,03,30,14.30
2010,08,04,03,31,14.30
2010,08,04,03,32,14.30
2010,08,04,03,33,14.30
2010,08,04,03,34,14.30
2010,08,04,03,35,14.20
2010,08,04,03,36,14.20
2010,08,04,03,37,14.20
2010,08,04,03,38,14.20
2010,08,04,03,39,14.20
2010,08,04,03,40,14.20
2010,08,04,03,41,14.20
2010,08,04,03,42,14.20
2010,08,04,03,43,14.20
2010,08,04,03,44,14.20
2010,08,04,03,45,14.20
2010,08,04,03,46,14.30
2010,08,04,03,47,14.30
2010,08,04,03,48,14.30
2010,08,04,03,49,14.30
2010,08,04,03,50,14.30
2010,08,04,03,51,14.30
2010,08,04,03,52,14.30
2010,08,04,03,53,14.30
2010,08,04,03,54,14.30
2010,08,04,03,55,14.30
2010,08,04,03,56,14.30
2010,08,04,03,57,14.30
2010,08,04,03,58,14.30
2010,08,04,03,59,14.30
2010,08,04,04,00,14.30
2010,08,04,04,01,14.30
2010,08,04,04,02,14.30
2010,08,04,04,03,14.30
2010,08,04,04,04,14.40
2010,08,04,04,05,14.30
2010,08,04,04,06,14.30
2010,08,04,04,07,14.30
2010,08,04,04,08,14.30
2010,08,04,04,09,14.30
2010,08,04,04,10,14.30
2010,08,04,04,11,14.30
2010,08,04,04,12,14.30
2010,08,04,04,13,14.30
2010,08,04,04,14,14.20
2010,08,04,04,15,14.20
2010,08,04,04,16,14.20
2010,08,04,04,17,14.20
2010,08,04,04,18,14.30
2010,08,04,04,19,14.30
2010,08,04,04,20,14.30
2010,08,04,04,21,14.30
2010,08,04,04,22,14.30
2010,08,04,04,23,14.40
2010,08,04,04,24,14.30
2010,08,04,04,25,14.30
2010,08,04,04,26,14.30
2010,08,04,04,27,14.30
2010,08,04,04,28,14.30
2010,08,04,04,29,14.30
2010,08,04,04,30,14.30
2010,08,04,04,31,14.20
2010,08,04,04,32,14.20
2010,08,04,04,33,14.20
2010,08,04,04,34,14.20
2010,08,04,04,35,14.20
2010,08,04,04,36,14.20
2010,08,04,04,37,14.20
2010,08,04,04,38,14.20
2010,08,04,04,39,14.20
2010,08,04,04,40,14.20
2010,08,04,04,41,14.20
2010,08,04,04,42,14.20
2010,08,04,04,43,14.20
2010,08,04,04,44,14.10
2010,08,04,04,45,14.10
2010,08,04,04,46,14.10
2010,08,04,04,47,14.10
2010,08,04,04,48,14.10
2010,08,04,04,49,14.20
2010,08,04,04,50,14.20
2010,08,04,04,51,14.20
2010,08,04,04,52,14.20
2010,08,04,04,53,14.10
2010,08,04,04,54,14.10
2010,08,04,04,55,14.10
2010,08,04,04,56,14.10
2010,08,04,04,57,14.10
2010,08,04,04,58,14.10
2010,08,04,04,59,14.10
2010,08,04,05,00,14.10
2010,08,04,05,01,14.10
2010,08,04,05,02,14.10
2010,08,04,05,03,14.10
2010,08,04,05,04,14.10
2010,08,04,05,05,14.10
2010,08,04,05,06,14.10
2010,08,04,05,07,14.10
2010,08,04,05,08,14.10
2010,08,04,05,09,14.10
2010,08,04,05,10,14.10
2010,08,04,05,11,14.10
2010,08,04,05,12,14.10
2010,08,04,05,13,14.00
2010,08,04,05,14,14.00
2010,08,04,05,15,14.00
2010,08,04,05,16,13.90
2010,08,04,05,17,13.90
2010,08,04,05,18,13.90
2010,08,04,05,19,13.90
2010,08,04,05,20,13.90
2010,08,04,05,21,13.90
2010,08,04,05,22,13.90
2010,08,04,05,23,13.90
2010,08,04,05,24,13.90
2010,08,04,05,25,13.90
2010,08,04,05,26,13.90
2010,08,04,05,27,13.90
2010,08,04,05,28,13.90
2010,08,04,05,29,13.90
2010,08,04,05,30,13.90
2010,08,04,05,31,13.90
2010,08,04,05,32,13.90
2010,08,04,05,33,13.90
2010,08,04,05,34,13.90
2010,08,04,05,35,13.90
2010,08,04,05,36,13.90
2010,08,04,05,37,13.90
2010,08,04,05,38,13.80
2010,08,04,05,39,13.80
2010,08,04,05,40,13.80
2010,08,04,05,41,13.80
2010,08,04,05,42,13.80
2010,08,04,05,43,13.80
2010,08,04,05,44,13.80
2010,08,04,05,45,13.80
2010,08,04,05,46,13.80
2010,08,04,05,47,13.80
2010,08,04,05,48,13.80
2010,08,04,05,49,13.80
2010,08,04,05,50,13.80
2010,08,04,05,51,13.80
2010,08,04,05,52,13.80
2010,08,04,05,53,13.80
2010,08,04,05,54,13.80
2010,08,04,05,55,13.80
2010,08,04,05,56,13.80
2010,08,04,05,57,13.80
2010,08,04,05,58,13.80
2010,08,04,05,59,13.80
2010,08,04,06,00,13.80
2010,08,04,06,01,13.80
2010,08,04,06,02,13.80
2010,08,04,06,03,13.80
2010,08,04,06,04,13.80
2010,08,04,06,05,13.80
2010,08,04,06,06,13.80
2010,08,04,06,07,13.80
2010,08,04,06,08,13.80
2010,08,04,06,09,13.80
2010,08,04,06,10,13.80
2010,08,04,06,11,13.80
2010,08,04,06,12,13.80
2010,08,04,06,13,13.80
2010,08,04,06,14,13.80
2010,08,04,06,15,13.80
2010,08,04,06,16,13.80
2010,08,04,06,17,13.80
2010,08,04,06,18,13.80
2010,08,04,06,19,13.80
2010,08,04,06,20,13.80
2010,08,04,06,21,13.80
2010,08,04,06,22,13.80
2010,08,04,06,23,13.80
2010,08,04,06,24,13.80
2010,08,04,06,25,13.80
2010,08,04,06,26,13.80
2010,08,04,06,27,13.80
2010,08,04,06,28,13.80
2010,08,04,06,29,13.80
2010,08,04,06,30,13.80
2010,08,04,06,31,13.80
2010,08,04,06,32,13.80
2010,08,04,06,33,13.80
2010,08,04,06,34,13.80
2010,08,04,06,35,13.80
2010,08,04,06,36,13.80
2010,08,04,06,37,13.90
2010,08,04,06,38,13.80
2010,08,04,06,39,13.80
2010,08,04,06,40,13.90
2010,08,04,06,41,13.90
2010,08,04,06,42,13.90
2010,08,04,06,43,14.00
2010,08,04,06,44,14.00
2010,08,04,06,45,13.90
2010,08,04,06,46,13.90
2010,08,04,06,47,13.90
2010,08,04,06,48,14.00
2010,08,04,06,49,14.00
2010,08,04,06,50,14.00
2010,08,04,06,51,14.00
2010,08,04,06,52,14.00
2010,08,04,06,53,14.00
2010,08,04,06,54,14.10
2010,08,04,06,55,14.10
2010,08,04,06,56,14.10
2010,08,04,06,57,14.10
2010,08,04,06,58,14.10
2010,08,04,06,59,14.10
2010,08,04,07,00,14.10
2010,08,04,07,01,14.10
2010,08,04,07,02,14.10
2010,08,04,07,03,14.10
2010,08,04,07,04,14.20
2010,08,04,07,05,14.20
2010,08,04,07,06,14.20
2010,08,04,07,07,14.20
2010,08,04,07,08,14.20
2010,08,04,07,09,14.20
2010,08,04,07,10,14.20
2010,08,04,07,11,14.30
2010,08,04,07,12,14.30
2010,08,04,07,13,14.30
2010,08,04,07,14,14.30
2010,08,04,07,15,14.30
2010,08,04,07,16,14.30
2010,08,04,07,17,14.40
2010,08,04,07,18,14.40
2010,08,04,07,19,14.40
2010,08,04,07,20,14.40
2010,08,04,07,21,14.40
2010,08,04,07,22,14.40
2010,08,04,07,23,14.40
2010,08,04,07,24,14.50
2010,08,04,07,25,14.50
2010,08,04,07,26,14.60
2010,08,04,07,27,14.60
2010,08,04,07,28,14.60
2010,08,04,07,29,14.60
2010,08,04,07,30,14.60
2010,08,04,07,31,14.70
2010,08,04,07,32,14.70
2010,08,04,07,33,14.70
2010,08,04,07,34,14.70
2010,08,04,07,35,14.80
2010,08,04,07,36,14.80
2010,08,04,07,37,14.80
2010,08,04,07,38,14.80
2010,08,04,07,39,14.80
2010,08,04,07,40,14.90
2010,08,04,07,41,14.90
2010,08,04,07,42,15.00
2010,08,04,07,43,15.00
2010,08,04,07,44,15.00
2010,08,04,07,45,15.00
2010,08,04,07,46,15.00
2010,08,04,07,47,15.00
2010,08,04,07,48,15.00
2010,08,04,07,49,15.10
2010,08,04,07,50,15.10
2010,08,04,07,51,15.20
2010,08,04,07,52,15.30
2010,08,04,07,53,15.30
2010,08,04,07,54,15.30
2010,08,04,07,55,15.40
2010,08,04,07,56,15.40
2010,08,04,07,57,15.40
2010,08,04,07,58,15.50
2010,08,04,07,59,15.50
2010,08,04,08,00,15.50
2010,08,04,08,01,15.60
2010,08,04,08,02,15.60
2010,08,04,08,03,15.60
2010,08,04,08,04,15.60
2010,08,04,08,05,15.70
2010,08,04,08,06,15.70
2010,08,04,08,07,15.70
2010,08,04,08,08,15.70
2010,08,04,08,09,15.80
2010,08,04,08,10,15.80
2010,08,04,08,11,15.80
2010,08,04,08,12,15.90
2010,08,04,08,13,15.90
2010,08,04,08,14,15.90
2010,08,04,08,15,16.00
2010,08,04,08,16,16.00
2010,08,04,08,17,16.00
2010,08,04,08,18,16.10
2010,08,04,08,19,16.10
2010,08,04,08,20,16.10
2010,08,04,08,21,16.20
2010,08,04,08,22,16.20
2010,08,04,08,23,16.20
2010,08,04,08,24,16.30
2010,08,04,08,25,16.30
2010,08,04,08,26,16.30
2010,08,04,08,27,16.30
2010,08,04,08,28,16.40
2010,08,04,08,29,16.40
2010,08,04,08,30,16.40
2010,08,04,08,31,16.40
2010,08,04,08,32,16.50
2010,08,04,08,33,16.50
2010,08,04,08,34,16.50
2010,08,04,08,35,16.60
2010,08,04,08,36,16.60
2010,08,04,08,37,16.70
2010,08,04,08,38,16.70
2010,08,04,08,39,16.80
2010,08,04,08,40,16.80
2010,08,04,08,41,16.80
2010,08,04,08,42,16.80
2010,08,04,08,43,16.80
2010,08,04,08,44,16.80
2010,08,04,08,45,16.90
2010,08,04,08,46,16.90
2010,08,04,08,47,16.90
2010,08,04,08,48,17.00
2010,08,04,08,49,17.10
2010,08,04,08,50,17.10
2010,08,04,08,51,17.10
2010,08,04,08,52,17.20
2010,08,04,08,53,17.20
2010,08,04,08,54,17.30
2010,08,04,08,55,17.30
2010,08,04,08,56,17.40
2010,08,04,08,57,17.40
2010,08,04,08,58,17.50
2010,08,04,08,59,17.60
2010,08,04,09,00,17.60
2010,08,04,09,01,17.60
2010,08,04,09,02,17.70
2010,08,04,09,03,17.70
2010,08,04,09,04,17.70
2010,08,04,09,05,17.80
2010,08,04,09,06,17.80
2010,08,04,09,07,17.80
2010,08,04,09,08,17.80
2010,08,04,09,09,17.80
2010,08,04,09,10,17.90
2010,08,04,09,11,17.90
2010,08,04,09,12,17.90
2010,08,04,09,13,17.90
2010,08,04,09,14,17.90
2010,08,04,09,15,18.00
2010,08,04,09,16,18.00
2010,08,04,09,17,18.10
2010,08,04,09,18,18.10
2010,08,04,09,19,18.20
2010,08,04,09,20,18.20
2010,08,04,09,21,18.30
2010,08,04,09,22,18.40
2010,08,04,09,23,18.50
2010,08,04,09,24,18.60
2010,08,04,09,25,18.70
2010,08,04,09,26,18.80
2010,08,04,09,27,18.90
2010,08,04,09,28,18.90
2010,08,04,09,29,19.00
2010,08,04,09,30,19.10
2010,08,04,09,31,19.20
2010,08,04,09,32,19.30
2010,08,04,09,33,19.40
2010,08,04,09,34,19.50
2010,08,04,09,35,19.60
2010,08,04,09,36,19.70
2010,08,04,09,37,19.70
2010,08,04,09,38,19.80
2010,08,04,09,39,19.90
2010,08,04,09,40,19.90
2010,08,04,09,41,20.00
2010,08,04,09,42,20.00
2010,08,04,09,43,20.00
2010,08,04,09,44,20.00
2010,08,04,09,45,20.00
2010,08,04,09,46,20.00
2010,08,04,09,47,20.00
2010,08,04,09,48,19.90
2010,08,04,09,49,19.90
2010,08,04,09,50,19.90
2010,08,04,09,51,19.90
2010,08,04,09,52,19.90
2010,08,04,09,53,19.80
2010,08,04,09,54,19.80
2010,08,04,09,55,19.80
2010,08,04,09,56,19.80
2010,08,04,09,57,19.80
2010,08,04,09,58,19.80
2010,08,04,09,59,19.90
2010,08,04,10,00,20.00
2010,08,04,10,01,20.10
2010,08,04,10,02,20.10
2010,08,04,10,03,20.20
2010,08,04,10,04,20.30
2010,08,04,10,05,20.40
2010,08,04,10,06,20.50
2010,08,04,10,07,20.60
2010,08,04,10,08,20.60
2010,08,04,10,09,20.70
2010,08,04,10,10,20.80
2010,08,04,10,11,20.80
2010,08,04,10,12,20.80
2010,08,04,10,13,20.90
2010,08,04,10,14,21.00
2010,08,04,10,15,21.00
2010,08,04,10,16,21.10
2010,08,04,10,17,21.10
2010,08,04,10,18,21.10
2010,08,04,10,19,21.00
2010,08,04,10,20,20.90
2010,08,04,10,21,20.90
2010,08,04,10,22,20.90
2010,08,04,10,23,20.80
2010,08,04,10,24,20.80
2010,08,04,10,25,20.70
2010,08,04,10,26,20.60
2010,08,04,10,27,20.60
2010,08,04,10,28,20.50
2010,08,04,10,29,20.50
2010,08,04,10,30,20.40
2010,08,04,10,31,20.30
2010,08,04,10,32,20.30
2010,08,04,10,33,20.30
2010,08,04,10,34,20.30
2010,08,04,10,35,20.20
2010,08,04,10,36,20.20
2010,08,04,10,37,20.20
2010,08,04,10,38,20.20
2010,08,04,10,39,20.20
2010,08,04,10,40,20.20
2010,08,04,10,41,20.20
2010,08,04,10,42,20.20
2010,08,04,10,43,20.10
2010,08,04,10,44,20.10
2010,08,04,10,45,20.10
2010,08,04,10,46,20.10
2010,08,04,10,47,20.10
2010,08,04,10,48,20.10
2010,08,04,10,49,20.10
2010,08,04,10,50,20.10
2010,08,04,10,51,20.10
2010,08,04,10,52,20.10
2010,08,04,10,53,20.10
2010,08,04,10,54,20.10
2010,08,04,10,55,20.00
2010,08,04,10,56,20.00
2010,08,04,10,57,20.00
2010,08,04,10,58,20.00
2010,08,04,10,59,20.00
2010,08,04,11,00,20.00
2010,08,04,11,01,20.00
2010,08,04,11,02,20.00
2010,08,04,11,03,19.90
2010,08,04,11,04,19.90
2010,08,04,11,05,20.00
2010,08,04,11,06,20.00
2010,08,04,11,07,20.10
2010,08,04,11,08,20.10
2010,08,04,11,09,20.20
2010,08,04,11,10,20.20
2010,08,04,11,11,20.30
2010,08,04,11,12,20.40
2010,08,04,11,13,20.50
2010,08,04,11,14,20.60
2010,08,04,11,15,20.70
2010,08,04,11,16,20.90
2010,08,04,11,17,21.00
2010,08,04,11,18,21.10
2010,08,04,11,19,21.20
2010,08,04,11,20,21.20
2010,08,04,11,21,21.30
2010,08,04,11,22,21.30
2010,08,04,11,23,21.30
2010,08,04,11,24,21.30
2010,08,04,11,25,21.40
2010,08,04,11,26,21.50
2010,08,04,11,27,21.60
2010,08,04,11,28,21.70
2010,08,04,11,29,21.90
2010,08,04,11,30,22.00
2010,08,04,11,31,22.10
2010,08,04,11,32,22.10
2010,08,04,11,33,22.20
2010,08,04,11,34,22.20
2010,08,04,11,35,22.20
2010,08,04,11,36,22.20
2010,08,04,11,37,22.30
2010,08,04,11,38,22.40
2010,08,04,11,39,22.50
2010,08,04,11,40,22.60
2010,08,04,11,41,22.60
2010,08,04,11,42,22.60
2010,08,04,11,43,22.60
2010,08,04,11,44,22.60
2010,08,04,11,45,22.50
2010,08,04,11,46,22.50
2010,08,04,11,47,22.50
2010,08,04,11,48,22.60
2010,08,04,11,49,22.70
2010,08,04,11,50,22.80
2010,08,04,11,51,22.80
2010,08,04,11,52,22.80
2010,08,04,11,53,22.90
2010,08,04,11,54,23.00
2010,08,04,11,55,23.10
2010,08,04,11,56,23.20
2010,08,04,11,57,23.30
2010,08,04,11,58,23.40
2010,08,04,11,59,23.50
2010,08,04,12,00,23.50
2010,08,04,12,01,23.50
2010,08,04,12,02,23.50
2010,08,04,12,03,23.50
2010,08,04,12,04,23.50
2010,08,04,12,05,23.40
2010,08,04,12,06,23.40
2010,08,04,12,07,23.40
2010,08,04,12,08,23.40
2010,08,04,12,09,23.40
2010,08,04,12,10,23.50
2010,08,04,12,11,23.50
2010,08,04,12,12,23.50
2010,08,04,12,13,23.40
2010,08,04,12,14,23.40
2010,08,04,12,15,23.40
2010,08,04,12,16,23.40
2010,08,04,12,17,23.40
2010,08,04,12,18,23.40
2010,08,04,12,19,23.40
2010,08,04,12,20,23.40
2010,08,04,12,21,23.40
2010,08,04,12,22,23.50
2010,08,04,12,23,23.50
2010,08,04,12,24,23.50
2010,08,04,12,25,23.60
2010,08,04,12,26,23.70
2010,08,04,12,27,23.80
2010,08,04,12,28,24.00
2010,08,04,12,29,24.10
2010,08,04,12,30,24.30
2010,08,04,12,31,24.40
2010,08,04,12,32,24.60
2010,08,04,12,33,24.80
2010,08,04,12,34,24.80
2010,08,04,12,35,24.80
2010,08,04,12,36,24.80
2010,08,04,12,37,24.70
2010,08,04,12,38,24.60
2010,08,04,12,39,24.60
2010,08,04,12,40,24.60
2010,08,04,12,41,24.60
2010,08,04,12,42,24.60
2010,08,04,12,43,24.60
2010,08,04,12,44,24.70
2010,08,04,12,45,24.70
2010,08,04,12,46,24.80
2010,08,04,12,47,24.90
2010,08,04,12,48,25.00
2010,08,04,12,49,25.10
2010,08,04,12,50,25.20
2010,08,04,12,51,25.30
2010,08,04,12,52,25.30
2010,08,04,12,53,25.30
2010,08,04,12,54,25.40
2010,08,04,12,55,25.40
2010,08,04,12,56,25.40
2010,08,04,12,57,25.50
2010,08,04,12,58,25.50
2010,08,04,12,59,25.50
2010,08,04,13,00,25.40
2010,08,04,13,01,25.30
2010,08,04,13,02,25.20
2010,08,04,13,03,25.20
2010,08,04,13,04,25.10
2010,08,04,13,05,25.10
2010,08,04,13,06,25.10
2010,08,04,13,07,25.10
2010,08,04,13,08,25.20
2010,08,04,13,09,25.20
2010,08,04,13,10,25.20
2010,08,04,13,11,25.30
2010,08,04,13,12,25.20
2010,08,04,13,13,25.20
2010,08,04,13,14,25.20
2010,08,04,13,15,25.20
2010,08,04,13,16,25.20
2010,08,04,13,17,25.10
2010,08,04,13,18,25.10
2010,08,04,13,19,25.00
2010,08,04,13,20,25.00
2010,08,04,13,21,25.10
2010,08,04,13,22,25.10
2010,08,04,13,23,25.30
2010,08,04,13,24,25.30
2010,08,04,13,25,25.40
2010,08,04,13,26,25.50
2010,08,04,13,27,25.60
2010,08,04,13,28,25.70
2010,08,04,13,29,25.70
2010,08,04,13,30,25.70
2010,08,04,13,31,25.70
2010,08,04,13,32,25.70
2010,08,04,13,33,25.70
2010,08,04,13,34,25.60
2010,08,04,13,35,25.60
2010,08,04,13,36,25.70
2010,08,04,13,37,25.70
2010,08,04,13,38,25.70
2010,08,04,13,39,25.70
2010,08,04,13,40,25.70
2010,08,04,13,41,25.70
2010,08,04,13,42,25.80
2010,08,04,13,43,25.80
2010,08,04,13,44,25.80
2010,08,04,13,45,25.80
2010,08,04,13,46,25.80
2010,08,04,13,47,25.80
2010,08,04,13,48,25.80
2010,08,04,13,49,25.80
2010,08,04,13,50,25.70
2010,08,04,13,51,25.60
2010,08,04,13,52,25.50
2010,08,04,13,53,25.40
2010,08,04,13,54,25.40
2010,08,04,13,55,25.40
2010,08,04,13,56,25.50
2010,08,04,13,57,25.40
2010,08,04,13,58,25.30
2010,08,04,13,59,25.30
2010,08,04,14,00,25.30
2010,08,04,14,01,25.40
2010,08,04,14,02,25.50
2010,08,04,14,03,25.50
2010,08,04,14,04,25.60
2010,08,04,14,05,25.60
2010,08,04,14,06,25.60
2010,08,04,14,07,25.60
2010,08,04,14,08,25.70
2010,08,04,14,09,25.70
2010,08,04,14,10,25.70
2010,08,04,14,11,25.80
2010,08,04,14,12,25.90
2010,08,04,14,13,25.90
2010,08,04,14,14,25.90
2010,08,04,14,15,25.90
2010,08,04,14,16,26.00
2010,08,04,14,17,26.10
2010,08,04,14,18,26.10
2010,08,04,14,19,26.10
2010,08,04,14,20,26.00
2010,08,04,14,21,26.00
2010,08,04,14,22,26.00
2010,08,04,14,23,26.10
2010,08,04,14,24,26.20
2010,08,04,14,25,26.10
2010,08,04,14,26,26.10
2010,08,04,14,27,26.10
2010,08,04,14,28,26.10
2010,08,04,14,29,26.10
2010,08,04,14,30,26.20
2010,08,04,14,31,26.30
2010,08,04,14,32,26.40
2010,08,04,14,33,26.40
2010,08,04,14,34,26.40
2010,08,04,14,35,26.50
2010,08,04,14,36,26.60
2010,08,04,14,37,26.60
2010,08,04,14,38,26.60
2010,08,04,14,39,26.70
2010,08,04,14,40,26.70
2010,08,04,14,41,26.70
2010,08,04,14,42,26.70
2010,08,04,14,43,26.70
2010,08,04,14,44,26.80
2010,08,04,14,45,26.80
2010,08,04,14,46,26.90
2010,08,04,14,47,26.90
2010,08,04,14,48,27.00
2010,08,04,14,49,27.00
2010,08,04,14,50,27.00
2010,08,04,14,51,27.00
2010,08,04,14,52,27.10
2010,08,04,14,53,27.10
2010,08,04,14,54,27.10
2010,08,04,14,55,27.10
2010,08,04,14,56,27.20
2010,08,04,14,57,27.20
2010,08,04,14,58,27.10
2010,08,04,14,59,27.20
2010,08,04,15,00,27.20
2010,08,04,15,01,27.20
2010,08,04,15,02,27.20
2010,08,04,15,03,27.30
2010,08,04,15,04,27.30
2010,08,04,15,05,27.10
2010,08,04,15,06,27.10
2010,08,04,15,07,27.00
2010,08,04,15,08,27.00
2010,08,04,15,09,27.00
2010,08,04,15,10,27.00
2010,08,04,15,11,27.00
2010,08,04,15,12,27.10
2010,08,04,15,13,27.10
2010,08,04,15,14,27.10
2010,08,04,15,15,27.10
2010,08,04,15,16,27.10
2010,08,04,15,17,27.10
2010,08,04,15,18,27.00
2010,08,04,15,19,27.10
2010,08,04,15,20,27.00
2010,08,04,15,21,27.00
2010,08,04,15,22,26.90
2010,08,04,15,23,26.80
2010,08,04,15,24,26.70
2010,08,04,15,25,26.70
2010,08,04,15,26,26.60
2010,08,04,15,27,26.50
2010,08,04,15,28,26.50
2010,08,04,15,29,26.50
2010,08,04,15,30,26.50
2010,08,04,15,31,26.60
2010,08,04,15,32,26.60
2010,08,04,15,33,26.60
2010,08,04,15,34,26.60
2010,08,04,15,35,26.60
2010,08,04,15,36,26.60
2010,08,04,15,37,26.60
2010,08,04,15,38,26.60
2010,08,04,15,39,26.60
2010,08,04,15,40,26.60
2010,08,04,15,41,26.70
2010,08,04,15,42,26.70
2010,08,04,15,43,26.70
2010,08,04,15,44,26.70
2010,08,04,15,45,26.70
2010,08,04,15,46,26.70
2010,08,04,15,47,26.60
2010,08,04,15,48,26.60
2010,08,04,15,49,26.50
2010,08,04,15,50,26.50
2010,08,04,15,51,26.40
2010,08,04,15,52,26.40
2010,08,04,15,53,26.30
2010,08,04,15,54,26.30
2010,08,04,15,55,26.30
2010,08,04,15,56,26.30
2010,08,04,15,57,26.30
2010,08,04,15,58,26.20
2010,08,04,15,59,26.10
2010,08,04,16,00,26.00
2010,08,04,16,01,25.90
2010,08,04,16,02,25.90
2010,08,04,16,03,25.90
2010,08,04,16,04,25.80
2010,08,04,16,05,25.80
2010,08,04,16,06,25.80
2010,08,04,16,07,25.80
2010,08,04,16,08,25.80
2010,08,04,16,09,25.80
2010,08,04,16,10,25.80
2010,08,04,16,11,25.70
2010,08,04,16,12,25.70
2010,08,04,16,13,25.60
2010,08,04,16,14,25.60
2010,08,04,16,15,25.50
2010,08,04,16,16,25.40
2010,08,04,16,17,25.30
2010,08,04,16,18,25.20
2010,08,04,16,19,25.20
2010,08,04,16,20,25.20
2010,08,04,16,21,25.10
2010,08,04,16,22,25.10
2010,08,04,16,23,25.10
2010,08,04,16,24,25.10
2010,08,04,16,25,25.10
2010,08,04,16,26,25.00
2010,08,04,16,27,25.00
2010,08,04,16,28,24.90
2010,08,04,16,29,24.90
2010,08,04,16,30,24.90
2010,08,04,16,31,24.90
2010,08,04,16,32,24.90
2010,08,04,16,33,24.80
2010,08,04,16,34,24.90
2010,08,04,16,35,24.80
2010,08,04,16,36,24.80
2010,08,04,16,37,24.80
2010,08,04,16,38,24.80
2010,08,04,16,39,24.80
2010,08,04,16,40,24.90
2010,08,04,16,41,24.80
2010,08,04,16,42,24.80
2010,08,04,16,43,24.80
2010,08,04,16,44,24.80
2010,08,04,16,45,24.80
2010,08,04,16,46,24.80
2010,08,04,16,47,24.80
2010,08,04,16,48,24.80
2010,08,04,16,49,24.90
2010,08,04,16,50,24.90
2010,08,04,16,51,25.00
2010,08,04,16,52,25.00
2010,08,04,16,53,25.10
2010,08,04,16,54,25.10
2010,08,04,16,55,25.10
2010,08,04,16,56,25.10
2010,08,04,16,57,25.10
2010,08,04,16,58,25.20
2010,08,04,16,59,25.20
2010,08,04,17,00,25.30
2010,08,04,17,01,25.30
2010,08,04,17,02,25.30
2010,08,04,17,03,25.30
2010,08,04,17,04,25.30
2010,08,04,17,05,25.30
2010,08,04,17,06,25.30
2010,08,04,17,07,25.30
2010,08,04,17,08,25.30
2010,08,04,17,09,25.30
2010,08,04,17,10,25.40
2010,08,04,17,11,25.40
2010,08,04,17,12,25.50
2010,08,04,17,13,25.50
2010,08,04,17,14,25.60
2010,08,04,17,15,25.60
2010,08,04,17,16,25.60
2010,08,04,17,17,25.60
2010,08,04,17,18,25.70
2010,08,04,17,19,25.70